No particular awareness of the weather is required.    There are no Weather-warnings


Meteo18 Weather Cam more information Meteo18 Weather Cam


Thunder radar more information blitzortung!


Rain radar more information rain snow radar


Visit our other weather sites:

Template documentation
and downloads

And another site



Weather Underground History page Text

Daily Summary for December 19, 2017 Units:  English    Metric   Both
« Previous Day
Next Day »
Daily Weekly Monthly Yearly Custom
  High: Low: Average:
Temperature: TemperatureC °F 2.2 °F 4.2 °F
Dew Point: DewpointC °F 1.2 °F 2.7 °F
Humidity: Humidity % 85 % 90 %
Wind Speed: WindSpeedKMH mph 0.0 mph 3.4 mph
Wind Gust: WindSpeedGustKMH mph - -
Wind:- - SW
Pressure: PressurehPa in 1032.1 in -
Precipitation: 0.0 in    
Historical Graphs
 
 
Tabular Data for December 19, 2017
Time Temperature Dew Point Pressure Wind Wind Speed Wind Gust Humidity Rainfall Rate (Hourly)
TemperatureC °F DewpointC °F PressurehPa in Calm     Humidity % HourlyPrecipMM in
00:07 5.6 °F 3.3 °F 1032.1 in NNE 6.4 mph 12.9 mph 85 % 0.0 in
00:12 5.5 °F 3.3 °F 1032.1 in NE 8.0 mph 12.9 mph 86 % 0.0 in
00:22 5.4 °F 3.4 °F 1032.4 in East 4.8 mph 12.9 mph 87 % 0.0 in
00:27 5.4 °F 3.6 °F 1032.4 in North 3.2 mph 12.9 mph 88 % 0.0 in
00:32 5.4 °F 3.6 °F 1032.4 in NNE 3.2 mph 12.9 mph 88 % 0.0 in
00:37 5.4 °F 3.6 °F 1032.4 in NNW 3.2 mph 12.9 mph 88 % 0.0 in
00:42 5.4 °F 3.6 °F 1032.4 in North 3.2 mph 11.3 mph 88 % 0.0 in
00:47 5.3 °F 3.5 °F 1032.4 in North 4.8 mph 9.7 mph 88 % 0.0 in
00:52 5.3 °F 3.5 °F 1032.4 in Calm   9.7 mph 88 % 0.0 in
01:02 5.3 °F 3.5 °F 1032.4 in NNW 1.6 mph 9.7 mph 88 % 0.0 in
01:12 5.3 °F 3.3 °F 1032.7 in NNW 4.8 mph 9.7 mph 87 % 0.0 in
01:17 5.4 °F 3.4 °F 1032.7 in NNE 1.6 mph 8.0 mph 87 % 0.0 in
01:22 5.4 °F 3.4 °F 1032.7 in NNE 4.8 mph 8.0 mph 87 % 0.0 in
01:32 5.4 °F 3.2 °F 1032.7 in Calm   8.0 mph 86 % 0.0 in
01:42 5.4 °F 3.2 °F 1032.7 in NNW 3.2 mph 6.4 mph 86 % 0.0 in
01:47 5.4 °F 3.2 °F 1032.7 in NW 1.6 mph 9.7 mph 86 % 0.0 in
01:52 5.3 °F 3.3 °F 1032.7 in NNW 1.6 mph 9.7 mph 87 % 0.0 in
01:57 5.3 °F 3.3 °F 1032.7 in NW 3.2 mph 4.8 mph 87 % 0.0 in
02:02 5.2 °F 3.2 °F 1032.7 in NW 1.6 mph 4.8 mph 87 % 0.0 in
02:07 5.2 °F 3.2 °F 1033.1 in Calm   4.8 mph 87 % 0.0 in
02:12 5.2 °F 3.4 °F 1032.7 in Calm   4.8 mph 88 % 0.0 in
02:17 5.2 °F 3.4 °F 1033.1 in Calm   4.8 mph 88 % 0.0 in
02:22 5.2 °F 3.4 °F 1033.1 in NNW 1.6 mph 4.8 mph 88 % 0.0 in
02:27 5.2 °F 3.4 °F 1033.1 in NW 3.2 mph 4.8 mph 88 % 0.0 in
02:32 5.1 °F 3.3 °F 1033.1 in NW 1.6 mph 4.8 mph 88 % 0.0 in
02:37 5.1 °F 3.3 °F 1033.1 in North 1.6 mph 4.8 mph 88 % 0.0 in
02:42 5.1 °F 3.3 °F 1033.4 in NNW 3.2 mph 4.8 mph 88 % 0.0 in
02:47 5.2 °F 3.4 °F 1033.4 in NNE 3.2 mph 6.4 mph 88 % 0.0 in
02:52 5.1 °F 3.3 °F 1033.4 in North 1.6 mph 6.4 mph 88 % 0.0 in
02:57 5.1 °F 3.3 °F 1033.4 in NNW 3.2 mph 6.4 mph 88 % 0.0 in
03:02 5.1 °F 3.3 °F 1033.4 in Calm   6.4 mph 88 % 0.0 in
03:07 5.1 °F 3.3 °F 1033.4 in NNE 1.6 mph 4.8 mph 88 % 0.0 in
03:12 5.1 °F 3.3 °F 1033.4 in NW 1.6 mph 4.8 mph 88 % 0.0 in
03:17 5.2 °F 3.4 °F 1033.4 in Calm   4.8 mph 88 % 0.0 in
03:22 5.2 °F 3.4 °F 1033.4 in North 1.6 mph 4.8 mph 88 % 0.0 in
03:32 5.1 °F 3.3 °F 1033.4 in NNW 3.2 mph 4.8 mph 88 % 0.0 in
03:37 5.1 °F 3.3 °F 1033.4 in NW 1.6 mph 3.2 mph 88 % 0.0 in
03:47 5.1 °F 3.3 °F 1033.4 in WNW 3.2 mph 6.4 mph 88 % 0.0 in
03:52 5.1 °F 3.3 °F 1033.7 in WNW 1.6 mph 6.4 mph 88 % 0.0 in
03:57 5.1 °F 3.4 °F 1033.7 in WNW 6.4 mph 8.0 mph 89 % 0.0 in
04:02 5.1 °F 3.4 °F 1033.7 in NW 8.0 mph 8.0 mph 89 % 0.0 in
04:07 5.1 °F 3.4 °F 1033.7 in WNW 1.6 mph 11.3 mph 89 % 0.0 in
04:17 5.0 °F 3.3 °F 1033.7 in NNW 4.8 mph 11.3 mph 89 % 0.0 in
04:22 5.0 °F 3.3 °F 1033.7 in WNW 3.2 mph 11.3 mph 89 % 0.0 in
04:27 5.0 °F 3.5 °F 1033.7 in NW 1.6 mph 11.3 mph 90 % 0.0 in
04:42 4.9 °F 3.4 °F 1033.7 in NNW 1.6 mph 9.7 mph 90 % 0.0 in
04:47 4.9 °F 3.4 °F 1033.7 in NW 3.2 mph 9.7 mph 90 % 0.0 in
04:52 4.9 °F 3.6 °F 1033.7 in NNE 3.2 mph 9.7 mph 91 % 0.0 in
04:57 4.9 °F 3.6 °F 1033.7 in NNW 3.2 mph 8.0 mph 91 % 0.0 in
05:02 4.8 °F 3.5 °F 1033.7 in NNW 1.6 mph 8.0 mph 91 % 0.0 in
05:12 4.8 °F 3.5 °F 1034.1 in North 6.4 mph 8.0 mph 91 % 0.0 in
05:17 4.8 °F 3.5 °F 1034.1 in NNW 1.6 mph 8.0 mph 91 % 0.0 in
05:22 4.8 °F 3.5 °F 1034.1 in North 1.6 mph 8.0 mph 91 % 0.0 in
05:32 4.8 °F 3.6 °F 1033.7 in NNW 1.6 mph 9.7 mph 92 % 0.0 in
05:42 4.7 °F 3.5 °F 1033.7 in Calm   9.7 mph 92 % 0.0 in
05:47 4.7 °F 3.5 °F 1034.1 in NW 1.6 mph 6.4 mph 92 % 0.0 in
05:52 4.7 °F 3.5 °F 1034.1 in Calm   6.4 mph 92 % 0.0 in
05:57 4.7 °F 3.5 °F 1034.1 in Calm   3.2 mph 92 % 0.0 in
06:02 4.7 °F 3.5 °F 1034.1 in NW 1.6 mph 3.2 mph 92 % 0.0 in
06:07 4.7 °F 3.5 °F 1034.4 in Calm   4.8 mph 92 % 0.0 in
06:12 4.6 °F 3.4 °F 1034.4 in NW 1.6 mph 4.8 mph 92 % 0.0 in
06:17 4.6 °F 3.4 °F 1034.4 in NW 1.6 mph 3.2 mph 92 % 0.0 in
06:22 4.6 °F 3.4 °F 1034.1 in WNW 3.2 mph 3.2 mph 92 % 0.0 in
06:32 4.6 °F 3.4 °F 1034.4 in Calm   6.4 mph 92 % 0.0 in
06:42 4.5 °F 3.3 °F 1034.4 in Calm   4.8 mph 92 % 0.0 in
06:47 4.5 °F 3.3 °F 1034.4 in Calm   4.8 mph 92 % 0.0 in
06:52 4.5 °F 3.3 °F 1034.4 in Calm   4.8 mph 92 % 0.0 in
07:02 4.4 °F 3.2 °F 1034.1 in Calm   3.2 mph 92 % 0.0 in
07:07 4.4 °F 3.2 °F 1034.1 in WNW 1.6 mph 4.8 mph 92 % 0.0 in
07:12 4.4 °F 3.2 °F 1034.4 in Calm   4.8 mph 92 % 0.0 in
07:17 4.4 °F 3.2 °F 1034.8 in Calm   3.2 mph 92 % 0.0 in
07:27 4.4 °F 3.2 °F 1034.8 in North 1.6 mph 1.6 mph 92 % 0.0 in
07:32 4.4 °F 3.2 °F 1034.8 in NW 3.2 mph 3.2 mph 92 % 0.0 in
07:37 4.3 °F 3.1 °F 1034.8 in Calm   3.2 mph 92 % 0.0 in
07:42 4.3 °F 3.1 °F 1034.8 in NNW 1.6 mph 3.2 mph 92 % 0.0 in
07:47 4.3 °F 3.1 °F 1034.8 in NW 3.2 mph 4.8 mph 92 % 0.0 in
07:52 4.3 °F 3.1 °F 1034.8 in North 1.6 mph 4.8 mph 92 % 0.0 in
08:02 4.3 °F 3.1 °F 1034.8 in Calm   6.4 mph 92 % 0.0 in
08:12 4.3 °F 3.1 °F 1035.1 in NW 3.2 mph 6.4 mph 92 % 0.0 in
08:17 4.3 °F 3.1 °F 1035.1 in NW 3.2 mph 6.4 mph 92 % 0.0 in
08:27 4.3 °F 3.0 °F 1035.1 in NNE 4.8 mph 8.0 mph 91 % 0.0 in
08:32 4.2 °F 2.9 °F 1035.4 in NNW 4.8 mph 8.0 mph 91 % 0.0 in
08:37 4.2 °F 2.9 °F 1035.4 in NNE 4.8 mph 11.3 mph 91 % 0.0 in
08:42 4.2 °F 2.9 °F 1035.4 in Calm   11.3 mph 91 % 0.0 in
08:47 4.2 °F 3.0 °F 1035.4 in Calm   8.0 mph 92 % 0.0 in
08:52 4.2 °F 3.0 °F 1035.4 in WNW 8.0 mph 8.0 mph 92 % 0.0 in
08:57 4.1 °F 2.9 °F 1035.4 in WNW 1.6 mph 9.7 mph 92 % 0.0 in
09:02 4.0 °F 2.8 °F 1035.4 in NW 4.8 mph 9.7 mph 92 % 0.0 in
09:12 3.9 °F 2.7 °F 1035.8 in WNW 1.6 mph 9.7 mph 92 % 0.0 in
09:17 3.9 °F 2.7 °F 1035.8 in NNW 4.8 mph 6.4 mph 92 % 0.0 in
09:22 3.8 °F 2.6 °F 1035.8 in NW 3.2 mph 6.4 mph 92 % 0.0 in
09:32 3.8 °F 2.6 °F 1035.8 in NNW 4.8 mph 9.7 mph 92 % 0.0 in
09:42 3.8 °F 2.6 °F 1035.8 in North 1.6 mph 9.7 mph 92 % 0.0 in
09:47 3.8 °F 2.6 °F 1035.8 in North 4.8 mph 9.7 mph 92 % 0.0 in
09:52 3.9 °F 2.7 °F 1035.8 in NNW 1.6 mph 9.7 mph 92 % 0.0 in
09:57 3.9 °F 2.7 °F 1036.1 in NNE 3.2 mph 9.7 mph 92 % 0.0 in
10:12 4.2 °F 2.9 °F 1036.1 in North 1.6 mph 6.4 mph 91 % 0.0 in
10:17 4.2 °F 2.9 °F 1036.1 in NNW 4.8 mph 6.4 mph 91 % 0.0 in
10:22 4.3 °F 2.8 °F 1036.1 in North 8.0 mph 8.0 mph 90 % 0.0 in
10:32 4.5 °F 2.7 °F 1036.5 in NNW 3.2 mph 8.0 mph 88 % 0.0 in
10:37 4.6 °F 2.8 °F 1036.5 in NE 3.2 mph 11.3 mph 88 % 0.0 in
10:47 4.8 °F 2.8 °F 1036.5 in NE 3.2 mph 11.3 mph 87 % 0.0 in
10:52 4.8 °F 2.8 °F 1036.8 in NE 1.6 mph 11.3 mph 87 % 0.0 in
10:57 4.8 °F 2.8 °F 1036.8 in NE 1.6 mph 9.7 mph 87 % 0.0 in
11:02 4.8 °F 2.8 °F 1037.1 in NNE 11.3 mph 11.3 mph 87 % 0.0 in
11:12 4.8 °F 3.0 °F 1037.1 in North 12.9 mph 14.5 mph 88 % 0.0 in
11:17 4.7 °F 2.9 °F 1037.1 in North 6.4 mph 14.5 mph 88 % 0.0 in
11:22 4.6 °F 2.9 °F 1037.1 in NNE 11.3 mph 14.5 mph 89 % 0.0 in
11:32 4.3 °F 2.8 °F 1037.1 in WNW 3.2 mph 17.7 mph 90 % 0.0 in
11:42 4.3 °F 2.8 °F 1037.1 in North 1.6 mph 17.7 mph 90 % 0.0 in
11:52 4.7 °F 3.4 °F 1037.1 in NNW 3.2 mph 16.1 mph 91 % 0.0 in
12:02 4.9 °F 3.2 °F 1036.8 in NNW 4.8 mph 14.5 mph 89 % 0.0 in
12:07 4.9 °F 3.2 °F 1036.8 in NNE 11.3 mph 14.5 mph 89 % 0.0 in
12:17 4.5 °F 2.8 °F 1036.8 in NE 6.4 mph 16.1 mph 89 % 0.0 in
12:22 4.5 °F 3.0 °F 1036.8 in North 6.4 mph 16.1 mph 90 % 0.0 in
12:27 4.5 °F 3.0 °F 1036.8 in North 8.0 mph 14.5 mph 90 % 0.0 in
12:32 4.6 °F 3.1 °F 1036.5 in NNE 9.7 mph 14.5 mph 90 % 0.0 in
12:37 4.4 °F 2.7 °F 1036.5 in WNW 3.2 mph 17.7 mph 89 % 0.0 in
12:42 4.4 °F 2.9 °F 1036.5 in NNE 3.2 mph 17.7 mph 90 % 0.0 in
12:47 4.6 °F 3.1 °F 1036.5 in NNE 8.0 mph 17.7 mph 90 % 0.0 in
12:52 4.7 °F 3.2 °F 1036.5 in NNE 6.4 mph 17.7 mph 90 % 0.0 in
13:02 4.7 °F 3.0 °F 1036.5 in North 4.8 mph 17.7 mph 89 % 0.0 in
13:07 4.7 °F 3.0 °F 1036.5 in NNE 9.7 mph 17.7 mph 89 % 0.0 in
13:12 4.8 °F 3.1 °F 1036.5 in North 6.4 mph 17.7 mph 89 % 0.0 in
13:22 4.7 °F 3.0 °F 1036.5 in North 6.4 mph 16.1 mph 89 % 0.0 in
13:37 5.0 °F 3.3 °F 1036.1 in NE 12.9 mph 14.5 mph 89 % 0.0 in
13:42 5.1 °F 3.4 °F 1036.1 in WNW 1.6 mph 14.5 mph 89 % 0.0 in
13:47 5.1 °F 3.3 °F 1036.5 in NNE 3.2 mph 12.9 mph 88 % 0.0 in
13:57 5.1 °F 3.3 °F 1036.1 in NE 1.6 mph 11.3 mph 88 % 0.0 in
14:02 5.1 °F 3.1 °F 1036.1 in NE 4.8 mph 11.3 mph 87 % 0.0 in
14:07 5.3 °F 3.5 °F 1036.1 in NNE 6.4 mph 16.1 mph 88 % 0.0 in
14:12 5.4 °F 3.4 °F 1036.1 in NNE 4.8 mph 16.1 mph 87 % 0.0 in
14:17 5.7 °F 3.7 °F 1036.1 in North 4.8 mph 16.1 mph 87 % 0.0 in
14:22 5.6 °F 3.6 °F 1036.1 in NNE 6.4 mph 16.1 mph 87 % 0.0 in
14:32 5.4 °F 3.4 °F 1036.1 in North 6.4 mph 19.3 mph 87 % 0.0 in
14:37 5.3 °F 3.3 °F 1036.1 in NNW 8.0 mph 11.3 mph 87 % 0.0 in
14:42 5.3 °F 3.3 °F 1036.1 in North 9.7 mph 11.3 mph 87 % 0.0 in
14:52 5.1 °F 3.3 °F 1036.1 in NNW 3.2 mph 12.9 mph 88 % 0.0 in
15:02 5.1 °F 3.1 °F 1036.1 in NE 4.8 mph 14.5 mph 87 % 0.0 in
15:12 5.1 °F 3.1 °F 1036.1 in NNE 1.6 mph 11.3 mph 87 % 0.0 in
15:17 4.9 °F 2.9 °F 1036.1 in NNE 6.4 mph 14.5 mph 87 % 0.0 in
15:22 4.8 °F 2.8 °F 1036.5 in NNW 3.2 mph 14.5 mph 87 % 0.0 in
15:27 4.7 °F 2.7 °F 1036.5 in NNE 1.6 mph 12.9 mph 87 % 0.0 in
15:32 4.8 °F 2.8 °F 1036.5 in NNE 4.8 mph 12.9 mph 87 % 0.0 in
15:37 4.8 °F 2.8 °F 1036.5 in NNW 4.8 mph 11.3 mph 87 % 0.0 in
15:42 4.9 °F 2.9 °F 1036.5 in NNW 3.2 mph 11.3 mph 87 % 0.0 in
15:47 4.9 °F 2.9 °F 1036.5 in NNE 11.3 mph 12.9 mph 87 % 0.0 in
15:52 4.8 °F 2.8 °F 1036.5 in North 8.0 mph 12.9 mph 87 % 0.0 in
16:02 4.6 °F 2.6 °F 1036.8 in NNW 1.6 mph 16.1 mph 87 % 0.0 in
16:07 4.6 °F 2.8 °F 1036.8 in ENE 8.0 mph 12.9 mph 88 % 0.0 in
16:12 4.4 °F 2.6 °F 1036.8 in NNE 8.0 mph 12.9 mph 88 % 0.0 in
16:17 4.4 °F 2.7 °F 1036.8 in NE 4.8 mph 14.5 mph 89 % 0.0 in
16:22 4.2 °F 2.5 °F 1036.8 in NE 11.3 mph 14.5 mph 89 % 0.0 in
16:32 4.1 °F 2.5 °F 1036.8 in North 3.2 mph 14.5 mph 89 % 0.0 in
16:37 4.1 °F 2.6 °F 1036.8 in NNE 8.0 mph 12.9 mph 90 % 0.0 in
16:42 4.0 °F 2.5 °F 1036.8 in North 8.0 mph 12.9 mph 90 % 0.0 in
16:47 4.0 °F 2.5 °F 1036.8 in NNE 3.2 mph 12.9 mph 90 % 0.0 in
16:52 3.9 °F 2.4 °F 1036.8 in NNW 9.7 mph 12.9 mph 90 % 0.0 in
17:02 3.8 °F 2.3 °F 1037.1 in NNW 8.0 mph 11.3 mph 90 % 0.0 in
17:07 3.7 °F 2.2 °F 1036.8 in NNW 8.0 mph 14.5 mph 90 % 0.0 in
17:12 3.7 °F 2.4 °F 1037.1 in NNW 4.8 mph 14.5 mph 91 % 0.0 in
17:17 3.6 °F 2.3 °F 1037.1 in NNW 3.2 mph 14.5 mph 91 % 0.0 in
17:22 3.6 °F 2.3 °F 1037.1 in NNW 8.0 mph 14.5 mph 91 % 0.0 in
17:32 3.4 °F 2.1 °F 1037.1 in NW 1.6 mph 12.9 mph 91 % 0.0 in
17:42 3.2 °F 1.9 °F 1037.1 in North 4.8 mph 12.9 mph 91 % 0.0 in
17:47 3.1 °F 1.8 °F 1037.1 in North 4.8 mph 8.0 mph 91 % 0.0 in
17:52 3.0 °F 1.8 °F 1037.1 in NNW 1.6 mph 8.0 mph 92 % 0.0 in
18:02 2.9 °F 1.7 °F 1037.1 in NNE 4.8 mph 8.0 mph 92 % 0.0 in
18:07 2.9 °F 1.7 °F 1037.5 in NNW 3.2 mph 8.0 mph 92 % 0.0 in
18:12 2.8 °F 1.6 °F 1037.5 in NNW 3.2 mph 8.0 mph 92 % 0.0 in
18:17 2.7 °F 1.5 °F 1037.5 in NNW 1.6 mph 8.0 mph 92 % 0.0 in
18:22 2.7 °F 1.7 °F 1037.5 in NNW 1.6 mph 8.0 mph 93 % 0.0 in
18:27 2.7 °F 1.7 °F 1037.5 in NNW 4.8 mph 8.0 mph 93 % 0.0 in
18:32 2.7 °F 1.7 °F 1037.5 in North 4.8 mph 8.0 mph 93 % 0.0 in
18:37 2.6 °F 1.6 °F 1037.5 in North 3.2 mph 8.0 mph 93 % 0.0 in
18:42 2.6 °F 1.6 °F 1037.5 in NNW 3.2 mph 11.3 mph 93 % 0.0 in
18:52 2.6 °F 1.6 °F 1037.8 in NNW 3.2 mph 9.7 mph 93 % 0.0 in
18:57 2.6 °F 1.6 °F 1037.5 in Calm   6.4 mph 93 % 0.0 in
19:02 2.7 °F 1.7 °F 1037.8 in North 3.2 mph 6.4 mph 93 % 0.0 in
19:12 2.8 °F 1.8 °F 1037.5 in NNW 1.6 mph 6.4 mph 93 % 0.0 in
19:17 2.9 °F 1.9 °F 1037.5 in North 1.6 mph 6.4 mph 93 % 0.0 in
19:22 2.9 °F 1.9 °F 1037.5 in Calm   6.4 mph 93 % 0.0 in
19:32 2.7 °F 1.7 °F 1037.5 in NW 1.6 mph 3.2 mph 93 % 0.0 in
19:37 2.8 °F 1.8 °F 1037.5 in NNW 1.6 mph 6.4 mph 93 % 0.0 in
19:42 2.7 °F 1.7 °F 1037.5 in North 1.6 mph 6.4 mph 93 % 0.0 in
19:47 2.7 °F 1.7 °F 1037.5 in NNW 1.6 mph 6.4 mph 93 % 0.0 in
19:57 2.6 °F 1.6 °F 1037.5 in North 3.2 mph 4.8 mph 93 % 0.0 in
20:12 2.6 °F 1.6 °F 1037.5 in NNW 4.8 mph 6.4 mph 93 % 0.0 in
20:17 2.5 °F 1.5 °F 1037.5 in North 3.2 mph 6.4 mph 93 % 0.0 in
20:22 2.5 °F 1.5 °F 1037.5 in North 1.6 mph 6.4 mph 93 % 0.0 in
20:27 2.5 °F 1.5 °F 1037.5 in NNW 1.6 mph 6.4 mph 93 % 0.0 in
20:32 2.4 °F 1.4 °F 1037.5 in North 3.2 mph 6.4 mph 93 % 0.0 in
20:42 2.4 °F 1.4 °F 1037.5 in NW 4.8 mph 4.8 mph 93 % 0.0 in
20:52 2.4 °F 1.4 °F 1037.5 in NW 1.6 mph 4.8 mph 93 % 0.0 in
20:57 2.4 °F 1.4 °F 1037.5 in NNW 3.2 mph 4.8 mph 93 % 0.0 in
21:02 2.4 °F 1.4 °F 1037.5 in NW 3.2 mph 4.8 mph 93 % 0.0 in
21:12 2.4 °F 1.4 °F 1037.8 in NNW 4.8 mph 6.4 mph 93 % 0.0 in
21:22 2.4 °F 1.4 °F 1037.8 in Calm   6.4 mph 93 % 0.0 in
21:27 2.4 °F 1.4 °F 1037.8 in NW 1.6 mph 6.4 mph 93 % 0.0 in
21:32 2.3 °F 1.3 °F 1037.8 in NNE 3.2 mph 6.4 mph 93 % 0.0 in
21:37 2.3 °F 1.3 °F 1037.8 in Calm   4.8 mph 93 % 0.0 in
21:42 2.2 °F 1.2 °F 1037.8 in North 4.8 mph 4.8 mph 93 % 0.0 in
21:52 2.2 °F 1.2 °F 1037.5 in NW 1.6 mph 6.4 mph 93 % 0.0 in
22:02 2.2 °F 1.2 °F 1037.5 in NNW 1.6 mph 4.8 mph 93 % 0.0 in
22:12 2.3 °F 1.3 °F 1037.5 in Calm   4.8 mph 93 % 0.0 in
22:17 2.3 °F 1.3 °F 1037.5 in Calm   3.2 mph 93 % 0.0 in
22:22 2.3 °F 1.3 °F 1037.5 in NNW 1.6 mph 3.2 mph 93 % 0.0 in
22:27 2.4 °F 1.4 °F 1037.5 in Calm   3.2 mph 93 % 0.0 in
22:32 2.4 °F 1.5 °F 1037.5 in Calm   3.2 mph 94 % 0.0 in
22:42 2.5 °F 1.5 °F 1037.5 in Calm   4.8 mph 93 % 0.0 in
22:47 2.6 °F 1.6 °F 1037.5 in Calm   3.2 mph 93 % 0.0 in
22:52 2.6 °F 1.6 °F 1037.5 in Calm   3.2 mph 93 % 0.0 in
22:57 2.6 °F 1.6 °F 1037.5 in Calm   3.2 mph 93 % 0.0 in
23:02 2.7 °F 1.7 °F 1037.5 in NW 1.6 mph 3.2 mph 93 % 0.0 in
23:12 2.8 °F 1.8 °F 1037.8 in North 4.8 mph 4.8 mph 93 % 0.0 in
23:17 2.9 °F 1.9 °F 1037.8 in Calm   8.0 mph 93 % 0.0 in
23:22 2.9 °F 1.9 °F 1037.8 in NE 1.6 mph 8.0 mph 93 % 0.0 in
23:32 3.1 °F 2.1 °F 1037.8 in North 4.8 mph 8.0 mph 93 % 0.0 in
23:42 3.1 °F 1.9 °F 1037.8 in North 1.6 mph 9.7 mph 92 % 0.0 in
23:52 3.2 °F 2.0 °F 1038.1 in North 1.6 mph 9.7 mph 92 % 0.0 in
23:57 3.2 °F 2.0 °F 1038.1 in NNW 1.6 mph 9.7 mph 92 % 0.0 in
Meteo18
Compliments of Weather Underground - 4 mb

Script developed by  Jim McMurry - jmcmurry@mwt.net Adapted for the template by  Wim van der Kuil - Leuven-Template.eu

You find our weather info also at:

European Weather Network

Weather Underground

Equipment we use:

Weather-station
Davis Vue

Weather-program
Meteobridge

Weather-server
Raspberry PI 2 B+

Provider
1 and 1

Davis Vue

Meteobridge

Raspberry PI 2 B+

1 and 1